Time,TemperatureF,DewpointF,PressureIn,WindDirection,WindDirectionDegrees,WindSpeedMPH,WindSpeedGustMPH,Humidity,HourlyPrecipIn,Conditions,Clouds,dailyrainin,SoftwareType,DateUTC
2013-02-02 00:00:00,28.3,16.2,30.40,ENE,69,0.0,0.0,60,0.00,,---,0.00,VWS V14.01,2013-02-02 06:00:00,
2013-02-02 00:05:00,28.3,16.2,30.40,ENE,69,0.0,0.0,60,0.00,,---,0.00,VWS V14.01,2013-02-02 06:05:00,
2013-02-02 00:10:00,28.2,16.1,30.40,ENE,69,0.0,0.0,60,0.00,,---,0.00,VWS V14.01,2013-02-02 06:10:00,
2013-02-02 00:15:00,28.4,15.5,30.40,ENE,69,0.0,0.0,58,0.00,,---,0.00,VWS V14.01,2013-02-02 06:15:00,
2013-02-02 00:20:00,28.3,15.4,30.40,ENE,69,0.0,0.0,58,0.00,,---,0.00,VWS V14.01,2013-02-02 06:20:00,
2013-02-02 00:25:00,28.0,17.0,30.39,ENE,69,0.0,0.0,63,0.00,,---,0.00,VWS V14.01,2013-02-02 06:25:00,
2013-02-02 00:30:00,28.0,17.0,30.39,ENE,69,0.0,0.0,63,0.00,,---,0.00,VWS V14.01,2013-02-02 06:30:00,
2013-02-02 00:35:00,27.9,16.2,30.39,ENE,69,0.0,0.0,61,0.00,,---,0.00,VWS V14.01,2013-02-02 06:35:00,
2013-02-02 00:40:00,27.9,16.6,30.39,ENE,69,0.0,0.0,62,0.00,,---,0.00,VWS V14.01,2013-02-02 06:40:00,
2013-02-02 00:45:00,28.4,17.8,30.38,ENE,69,0.0,0.0,64,0.00,,---,0.00,VWS V14.01,2013-02-02 06:45:00,
2013-02-02 00:50:00,28.8,18.2,30.39,ENE,69,0.0,0.0,64,0.00,,---,0.00,VWS V14.01,2013-02-02 06:50:00,
2013-02-02 00:55:00,28.4,18.1,30.39,ENE,69,0.0,0.0,65,0.00,,---,0.00,VWS V14.01,2013-02-02 06:55:00,
2013-02-02 01:00:00,28.9,14.8,30.39,ENE,69,0.0,0.0,55,0.00,,---,0.00,VWS V14.01,2013-02-02 07:00:00,
2013-02-02 01:05:00,28.9,17.2,30.39,ENE,69,0.0,0.0,61,0.00,,---,0.00,VWS V14.01,2013-02-02 07:05:00,
2013-02-02 01:10:00,27.9,17.3,30.39,ENE,69,0.0,0.0,64,0.00,,---,0.00,VWS V14.01,2013-02-02 07:10:00,
2013-02-02 01:15:00,27.5,18.0,30.38,ENE,69,0.0,0.0,67,0.00,,---,0.00,VWS V14.01,2013-02-02 07:15:00,
2013-02-02 01:20:00,28.0,15.9,30.38,ENE,69,0.0,0.0,60,0.00,,---,0.00,VWS V14.01,2013-02-02 07:20:00,
2013-02-02 01:25:00,29.0,14.9,30.38,ENE,69,0.0,0.0,55,0.00,,---,0.00,VWS V14.01,2013-02-02 07:25:00,
2013-02-02 01:30:00,29.1,14.1,30.38,ENE,69,0.0,0.0,53,0.00,,---,0.00,VWS V14.01,2013-02-02 07:30:00,
2013-02-02 01:35:00,29.3,14.3,30.38,ENE,69,0.0,0.0,53,0.00,,---,0.00,VWS V14.01,2013-02-02 07:35:00,
2013-02-02 01:40:00,29.0,14.4,30.38,ENE,69,0.0,0.0,54,0.00,,---,0.00,VWS V14.01,2013-02-02 07:40:00,
2013-02-02 01:45:00,28.3,16.6,30.38,ENE,69,0.0,1.0,61,0.00,,---,0.00,VWS V14.01,2013-02-02 07:45:00,
2013-02-02 01:50:00,27.8,16.1,30.38,ENE,69,0.0,1.0,61,0.00,,---,0.00,VWS V14.01,2013-02-02 07:50:00,
2013-02-02 01:55:00,28.0,17.0,30.37,ENE,69,0.0,1.0,63,0.00,,---,0.00,VWS V14.01,2013-02-02 07:55:00,
2013-02-02 02:00:00,27.6,17.4,30.38,ENE,69,0.0,0.0,65,0.00,,---,0.00,VWS V14.01,2013-02-02 08:00:00,
2013-02-02 06:30:00,25.7,16.6,30.34,SE,135,0.0,0.0,68,0.00,,---,0.00,VWS V14.01,2013-02-02 12:30:00,
2013-02-02 07:19:00,25.7,16.6,30.34,SE,135,0.0,0.0,68,0.00,,---,0.00,VWS V14.01,2013-02-02 13:19:00,
2013-02-02 07:24:00,30.0,17.4,30.33,South,174,0.0,1.0,59,0.00,,---,0.00,VWS V14.01,2013-02-02 13:24:00,
2013-02-02 07:29:00,30.4,19.0,30.33,South,175,0.0,1.0,62,0.00,,---,0.00,VWS V14.01,2013-02-02 13:29:00,
2013-02-02 07:34:00,29.9,18.5,30.33,South,174,0.0,1.0,62,0.00,,---,0.00,VWS V14.01,2013-02-02 13:34:00,
2013-02-02 07:39:00,29.3,19.7,30.33,SE,146,2.0,3.0,67,0.00,,---,0.00,VWS V14.01,2013-02-02 13:39:00,
2013-02-02 07:44:00,29.7,20.1,30.34,SSE,147,0.0,3.0,67,0.00,,---,0.00,VWS V14.01,2013-02-02 13:44:00,
2013-02-02 07:49:00,30.0,19.7,30.34,SSE,151,0.0,3.0,65,0.00,,---,0.00,VWS V14.01,2013-02-02 13:49:00,
2013-02-02 07:54:00,31.0,21.0,30.33,SSE,157,0.0,3.0,66,0.00,,---,0.00,VWS V14.01,2013-02-02 13:54:00,
2013-02-02 07:59:00,32.6,18.2,30.33,SSW,198,0.0,3.0,55,0.00,,---,0.00,VWS V14.01,2013-02-02 13:59:00,
2013-02-02 08:04:00,33.4,19.8,30.33,SW,225,0.0,2.0,57,0.00,,---,0.00,VWS V14.01,2013-02-02 14:04:00,
2013-02-02 08:09:00,34.9,19.1,30.33,NNW,342,1.0,3.0,52,0.00,,---,0.00,VWS V14.01,2013-02-02 14:09:00,
2013-02-02 08:14:00,35.5,17.3,30.33,North,5,0.0,3.0,47,0.00,,---,0.00,VWS V14.01,2013-02-02 14:14:00,
2013-02-02 08:19:00,36.1,16.3,30.33,North,355,1.0,3.0,44,0.00,,---,0.00,VWS V14.01,2013-02-02 14:19:00,
2013-02-02 08:24:00,36.8,15.3,30.32,NNW,338,3.0,3.0,41,0.00,,---,0.00,VWS V14.01,2013-02-02 14:24:00,
2013-02-02 08:29:00,37.4,15.3,30.32,NNW,346,4.0,4.0,40,0.00,,---,0.00,VWS V14.01,2013-02-02 14:29:00,
2013-02-02 08:34:00,38.3,15.5,30.33,North,355,1.0,3.0,39,0.00,,---,0.00,VWS V14.01,2013-02-02 14:34:00,
2013-02-02 08:39:00,39.7,14.9,30.33,North,351,3.0,5.0,36,0.00,,---,0.00,VWS V14.01,2013-02-02 14:39:00,
2013-02-02 08:44:00,39.8,15.0,30.34,North,9,3.0,5.0,36,0.00,,---,0.00,VWS V14.01,2013-02-02 14:44:00,
2013-02-02 08:49:00,39.6,12.9,30.33,NNW,341,2.0,5.0,33,0.00,,---,0.00,VWS V14.01,2013-02-02 14:49:00,
2013-02-02 08:54:00,41.1,17.4,30.33,North,5,1.0,5.0,38,0.00,,---,0.00,VWS V14.01,2013-02-02 14:54:00,
2013-02-02 08:59:00,40.4,19.7,30.33,SE,140,0.0,5.0,43,0.00,,---,0.00,VWS V14.01,2013-02-02 14:59:00,
2013-02-02 09:04:00,39.1,20.1,30.33,SE,144,0.0,1.0,46,0.00,,---,0.00,VWS V14.01,2013-02-02 15:04:00,
2013-02-02 09:09:00,41.2,15.6,30.32,East,84,1.0,4.0,35,0.00,,---,0.00,VWS V14.01,2013-02-02 15:09:00,
2013-02-02 09:14:00,42.3,13.1,30.32,NW,309,3.0,10.0,30,0.00,,---,0.00,VWS V14.01,2013-02-02 15:14:00,
2013-02-02 09:19:00,42.8,13.5,30.32,NW,315,4.0,10.0,30,0.00,,---,0.00,VWS V14.01,2013-02-02 15:19:00,
2013-02-02 09:24:00,42.4,13.9,30.31,NNE,18,6.0,10.0,31,0.00,,---,0.00,VWS V14.01,2013-02-02 15:24:00,
2013-02-02 09:29:00,43.4,13.3,30.32,NE,41,6.0,10.0,29,0.00,,---,0.00,VWS V14.01,2013-02-02 15:29:00,
2013-02-02 09:34:00,42.7,11.9,30.32,WNW,286,3.0,7.0,28,0.00,,---,0.00,VWS V14.01,2013-02-02 15:34:00,
2013-02-02 09:39:00,42.3,12.3,30.32,NNE,30,2.0,9.0,29,0.00,,---,0.00,VWS V14.01,2013-02-02 15:39:00,
2013-02-02 09:44:00,44.7,15.2,30.32,North,360,1.0,9.0,30,0.00,,---,0.00,VWS V14.01,2013-02-02 15:44:00,
2013-02-02 09:49:00,44.5,13.4,30.32,South,187,2.0,9.0,28,0.00,,---,0.00,VWS V14.01,2013-02-02 15:49:00,
2013-02-02 09:54:00,43.8,13.6,30.32,NNE,32,2.0,11.0,29,0.00,,---,0.00,VWS V14.01,2013-02-02 15:54:00,
2013-02-02 09:59:00,43.2,12.3,30.31,North,5,0.0,11.0,28,0.00,,---,0.00,VWS V14.01,2013-02-02 15:59:00,
2013-02-02 10:04:00,42.7,13.4,30.32,NNE,26,8.0,10.0,30,0.00,,---,0.00,VWS V14.01,2013-02-02 16:04:00,
2013-02-02 10:09:00,42.4,13.9,30.32,North,5,5.0,10.0,31,0.00,,---,0.00,VWS V14.01,2013-02-02 16:09:00,
2013-02-02 10:14:00,42.6,14.8,30.33,NE,42,3.0,10.0,32,0.00,,---,0.00,VWS V14.01,2013-02-02 16:14:00,
2013-02-02 10:19:00,42.6,14.8,30.33,NE,48,0.0,10.0,32,0.00,,---,0.00,VWS V14.01,2013-02-02 16:19:00,
2013-02-02 10:24:00,42.7,14.9,30.33,NE,40,1.0,10.0,32,0.00,,---,0.00,VWS V14.01,2013-02-02 16:24:00,
2013-02-02 10:29:00,43.0,15.9,30.33,NE,36,0.0,10.0,33,0.00,,---,0.00,VWS V14.01,2013-02-02 16:29:00,
2013-02-02 10:34:00,43.1,15.3,30.33,NW,321,0.0,3.0,32,0.00,,---,0.00,VWS V14.01,2013-02-02 16:34:00,
2013-02-02 10:39:00,43.5,16.3,30.32,NW,315,3.0,4.0,33,0.00,,---,0.00,VWS V14.01,2013-02-02 16:39:00,
2013-02-02 10:44:00,44.0,18.1,30.32,NE,48,1.0,4.0,35,0.00,,---,0.00,VWS V14.01,2013-02-02 16:44:00,
2013-02-02 10:49:00,44.1,16.9,30.31,NNE,22,1.0,4.0,33,0.00,,---,0.00,VWS V14.01,2013-02-02 16:49:00,
2013-02-02 10:54:00,44.3,16.3,30.31,WNW,286,3.0,4.0,32,0.00,,---,0.00,VWS V14.01,2013-02-02 16:54:00,
2013-02-02 10:59:00,44.6,16.6,30.31,North,11,1.0,4.0,32,0.00,,---,0.00,VWS V14.01,2013-02-02 16:59:00,
2013-02-02 11:04:00,44.8,17.5,30.31,NE,34,0.0,3.0,33,0.00,,---,0.00,VWS V14.01,2013-02-02 17:04:00,
2013-02-02 11:09:00,44.6,16.6,30.31,NW,309,3.0,3.0,32,0.00,,---,0.00,VWS V14.01,2013-02-02 17:09:00,
2013-02-02 11:14:00,44.9,17.6,30.30,NW,317,3.0,3.0,33,0.00,,---,0.00,VWS V14.01,2013-02-02 17:14:00,
2013-02-02 11:19:00,45.1,16.3,30.30,NW,304,0.0,4.0,31,0.00,,---,0.00,VWS V14.01,2013-02-02 17:19:00,
2013-02-02 11:24:00,45.2,16.4,30.30,North,360,1.0,4.0,31,0.00,,---,0.00,VWS V14.01,2013-02-02 17:24:00,
2013-02-02 11:29:00,45.4,17.3,30.29,NW,319,1.0,4.0,32,0.00,,---,0.00,VWS V14.01,2013-02-02 17:29:00,
2013-02-02 11:34:00,45.7,16.8,30.29,NNE,23,1.0,3.0,31,0.00,,---,0.00,VWS V14.01,2013-02-02 17:34:00,
2013-02-02 11:39:00,45.9,18.4,30.28,North,10,0.0,6.0,33,0.00,,---,0.00,VWS V14.01,2013-02-02 17:39:00,
2013-02-02 11:44:00,46.1,17.2,30.28,North,355,0.0,6.0,31,0.00,,---,0.00,VWS V14.01,2013-02-02 17:44:00,
2013-02-02 11:49:00,46.6,18.3,30.27,North,360,0.0,8.0,32,0.00,,---,0.00,VWS V14.01,2013-02-02 17:49:00,
2013-02-02 11:54:00,46.7,18.4,30.27,North,355,0.0,8.0,32,0.00,,---,0.00,VWS V14.01,2013-02-02 17:54:00,
2013-02-02 11:59:00,46.9,18.6,30.26,NNE,13,4.0,8.0,32,0.00,,---,0.00,VWS V14.01,2013-02-02 17:59:00,
2013-02-02 12:04:00,47.0,18.7,30.26,North,355,1.0,5.0,32,0.00,,---,0.00,VWS V14.01,2013-02-02 18:04:00,
2013-02-02 12:09:00,46.9,19.3,30.26,North,5,2.0,6.0,33,0.00,,---,0.00,VWS V14.01,2013-02-02 18:09:00,
2013-02-02 12:14:00,47.0,19.4,30.25,NNW,340,0.0,6.0,33,0.00,,---,0.00,VWS V14.01,2013-02-02 18:14:00,
2013-02-02 12:19:00,47.8,20.1,30.25,NW,321,2.0,6.0,33,0.00,,---,0.00,VWS V14.01,2013-02-02 18:19:00,
2013-02-02 12:24:00,48.1,21.1,30.25,WNW,292,5.0,6.0,34,0.00,,---,0.00,VWS V14.01,2013-02-02 18:24:00,
2013-02-02 12:29:00,48.1,20.4,30.24,NNE,28,2.0,7.0,33,0.00,,---,0.00,VWS V14.01,2013-02-02 18:29:00,
2013-02-02 12:34:00,48.1,21.1,30.23,North,11,3.0,4.0,34,0.00,,---,0.00,VWS V14.01,2013-02-02 18:34:00,
2013-02-02 12:39:00,48.7,21.6,30.23,NNW,341,0.0,6.0,34,0.00,,---,0.00,VWS V14.01,2013-02-02 18:39:00,
2013-02-02 12:44:00,49.2,21.3,30.22,NNE,24,7.0,7.0,33,0.00,,---,0.00,VWS V14.01,2013-02-02 18:44:00,
2013-02-02 12:49:00,49.1,21.3,30.22,North,360,3.0,7.0,33,0.00,,---,0.00,VWS V14.01,2013-02-02 18:49:00,
2013-02-02 12:54:00,49.4,21.5,30.22,NNW,346,1.0,7.0,33,0.00,,---,0.00,VWS V14.01,2013-02-02 18:54:00,
2013-02-02 12:59:00,49.7,22.5,30.21,NNE,32,1.0,7.0,34,0.00,,---,0.00,VWS V14.01,2013-02-02 18:59:00,
2013-02-02 13:04:00,49.9,22.7,30.21,NNE,22,2.0,6.0,34,0.00,,---,0.00,VWS V14.01,2013-02-02 19:04:00,
2013-02-02 13:09:00,49.9,22.7,30.20,North,5,1.0,6.0,34,0.00,,---,0.00,VWS V14.01,2013-02-02 19:09:00,
2013-02-02 13:14:00,50.1,22.8,30.20,NNE,28,0.0,6.0,34,0.00,,---,0.00,VWS V14.01,2013-02-02 19:14:00,
2013-02-02 13:19:00,50.4,23.1,30.20,NE,52,1.0,6.0,34,0.00,,---,0.00,VWS V14.01,2013-02-02 19:19:00,
2013-02-02 13:24:00,50.6,23.3,30.20,NNE,33,7.0,7.0,34,0.00,,---,0.00,VWS V14.01,2013-02-02 19:24:00,
2013-02-02 13:29:00,51.1,23.0,30.20,NNE,30,1.0,7.0,33,0.00,,---,0.00,VWS V14.01,2013-02-02 19:29:00,
2013-02-02 13:34:00,51.9,23.7,30.19,NNE,15,3.0,11.0,33,0.00,,---,0.00,VWS V14.01,2013-02-02 19:34:00,
2013-02-02 13:39:00,51.7,22.8,30.19,North,349,5.0,11.0,32,0.00,,---,0.00,VWS V14.01,2013-02-02 19:39:00,
2013-02-02 13:44:00,51.9,23.0,30.19,NNE,21,6.0,11.0,32,0.00,,---,0.00,VWS V14.01,2013-02-02 19:44:00,
2013-02-02 13:49:00,52.3,23.3,30.19,NW,309,5.0,11.0,32,0.00,,---,0.00,VWS V14.01,2013-02-02 19:49:00,
2013-02-02 13:54:00,52.1,23.2,30.19,NE,36,2.0,11.0,32,0.00,,---,0.00,VWS V14.01,2013-02-02 19:54:00,
2013-02-02 13:59:00,51.9,23.0,30.18,NE,34,3.0,11.0,32,0.00,,---,0.00,VWS V14.01,2013-02-02 19:59:00,
2013-02-02 14:04:00,51.7,25.0,30.18,NNW,340,4.0,7.0,35,0.00,,---,0.00,VWS V14.01,2013-02-02 20:04:00,
2013-02-02 14:09:00,51.5,24.1,30.18,NNE,22,4.0,7.0,34,0.00,,---,0.00,VWS V14.01,2013-02-02 20:09:00,
2013-02-02 14:14:00,51.6,24.9,30.18,NNE,21,2.0,7.0,35,0.00,,---,0.00,VWS V14.01,2013-02-02 20:14:00,
2013-02-02 14:19:00,51.8,24.3,30.18,NNE,14,2.0,7.0,34,0.00,,---,0.00,VWS V14.01,2013-02-02 20:19:00,
2013-02-02 14:24:00,52.0,24.5,30.17,NNW,338,6.0,9.0,34,0.00,,---,0.00,VWS V14.01,2013-02-02 20:24:00,
2013-02-02 14:29:00,51.9,25.1,30.17,NE,35,3.0,9.0,35,0.00,,---,0.00,VWS V14.01,2013-02-02 20:29:00,
2013-02-02 14:34:00,52.0,25.2,30.17,NNW,336,4.0,7.0,35,0.00,,---,0.00,VWS V14.01,2013-02-02 20:34:00,
2013-02-02 14:39:00,52.1,25.3,30.17,NNE,30,2.0,7.0,35,0.00,,---,0.00,VWS V14.01,2013-02-02 20:39:00,
2013-02-02 14:44:00,52.0,25.2,30.17,NNE,24,4.0,9.0,35,0.00,,---,0.00,VWS V14.01,2013-02-02 20:44:00,
2013-02-02 14:49:00,52.0,25.9,30.17,NNE,16,0.0,9.0,36,0.00,,---,0.00,VWS V14.01,2013-02-02 20:49:00,
2013-02-02 14:54:00,51.8,27.0,30.17,North,5,5.0,9.0,38,0.00,,---,0.00,VWS V14.01,2013-02-02 20:54:00,
2013-02-02 14:59:00,51.1,30.0,30.17,NE,44,3.0,9.0,44,0.00,,---,0.00,VWS V14.01,2013-02-02 20:59:00,
2013-02-02 15:04:00,50.4,32.0,30.17,NNE,21,1.0,5.0,49,0.00,,---,0.00,VWS V14.01,2013-02-02 21:04:00,
2013-02-02 15:09:00,50.1,31.7,30.17,NE,40,1.0,6.0,49,0.00,,---,0.00,VWS V14.01,2013-02-02 21:09:00,
2013-02-02 15:14:00,49.9,32.5,30.17,NNE,27,1.0,6.0,51,0.00,,---,0.00,VWS V14.01,2013-02-02 21:14:00,
2013-02-02 15:19:00,49.5,32.6,30.16,NE,44,1.0,6.0,52,0.00,,---,0.00,VWS V14.01,2013-02-02 21:19:00,
2013-02-02 15:24:00,49.6,32.2,30.16,NE,38,0.0,6.0,51,0.00,,---,0.00,VWS V14.01,2013-02-02 21:24:00,
2013-02-02 15:29:00,50.1,32.2,30.17,NE,40,2.0,6.0,50,0.00,,---,0.00,VWS V14.01,2013-02-02 21:29:00,
2013-02-02 15:34:00,49.0,34.5,30.17,ESE,111,0.0,3.0,57,0.00,,---,0.00,VWS V14.01,2013-02-02 21:34:00,
2013-02-02 15:39:00,47.3,36.5,30.17,ESE,115,1.0,3.0,66,0.00,,---,0.00,VWS V14.01,2013-02-02 21:39:00,
2013-02-02 15:44:00,46.6,37.3,30.17,ESE,117,2.0,3.0,70,0.00,,---,0.00,VWS V14.01,2013-02-02 21:44:00,
2013-02-02 15:49:00,46.5,37.6,30.17,ESE,118,0.0,3.0,71,0.00,,---,0.00,VWS V14.01,2013-02-02 21:49:00,
2013-02-02 15:54:00,46.1,37.9,30.16,ESE,118,0.0,3.0,73,0.01,,---,0.01,VWS V14.01,2013-02-02 21:54:00,
2013-02-02 15:59:00,46.1,37.9,30.17,ESE,118,0.0,3.0,73,0.01,,---,0.01,VWS V14.01,2013-02-02 21:59:00,
2013-02-02 16:04:00,45.7,37.5,30.17,ESE,118,0.0,1.0,73,0.01,,---,0.01,VWS V14.01,2013-02-02 22:04:00,
2013-02-02 16:09:00,45.8,38.3,30.17,ESE,118,0.0,1.0,75,0.01,,---,0.01,VWS V14.01,2013-02-02 22:09:00,
2013-02-02 16:14:00,45.0,38.6,30.17,ESE,122,0.0,1.0,78,0.01,,---,0.01,VWS V14.01,2013-02-02 22:14:00,
2013-02-02 16:19:00,44.7,39.5,30.17,ESE,123,0.0,1.0,82,0.01,,---,0.01,VWS V14.01,2013-02-02 22:19:00,
2013-02-02 16:24:00,44.6,39.8,30.18,ESE,122,1.0,1.0,83,0.01,,---,0.01,VWS V14.01,2013-02-02 22:24:00,
2013-02-02 16:29:00,44.4,39.6,30.18,ESE,123,1.0,1.0,83,0.01,,---,0.01,VWS V14.01,2013-02-02 22:29:00,
2013-02-02 16:34:00,44.2,39.4,30.19,ESE,123,0.0,1.0,83,0.01,,---,0.01,VWS V14.01,2013-02-02 22:34:00,
2013-02-02 16:39:00,44.1,39.3,30.19,SSW,193,0.0,3.0,83,0.01,,---,0.01,VWS V14.01,2013-02-02 22:39:00,
2013-02-02 16:44:00,43.9,39.1,30.19,SSE,157,0.0,3.0,83,0.01,,---,0.01,VWS V14.01,2013-02-02 22:44:00,
2013-02-02 16:49:00,43.7,38.9,30.20,South,191,0.0,3.0,83,0.01,,---,0.01,VWS V14.01,2013-02-02 22:49:00,
2013-02-02 16:54:00,43.4,38.9,30.19,South,191,0.0,3.0,84,0.02,,---,0.02,VWS V14.01,2013-02-02 22:54:00,
2013-02-02 16:59:00,43.1,38.9,30.19,South,191,0.0,3.0,85,0.02,,---,0.02,VWS V14.01,2013-02-02 22:59:00,
2013-02-02 17:04:00,42.9,38.7,30.19,South,191,0.0,0.0,85,0.01,,---,0.02,VWS V14.01,2013-02-02 23:04:00,
2013-02-02 17:09:00,42.9,39.0,30.20,South,191,0.0,1.0,86,0.01,,---,0.02,VWS V14.01,2013-02-02 23:09:00,
2013-02-02 17:14:00,42.7,38.8,30.20,South,191,0.0,1.0,86,0.01,,---,0.02,VWS V14.01,2013-02-02 23:14:00,
2013-02-02 17:19:00,42.5,38.6,30.20,South,191,0.0,1.0,86,0.01,,---,0.02,VWS V14.01,2013-02-02 23:19:00,
2013-02-02 17:24:00,42.4,38.5,30.19,South,191,0.0,1.0,86,0.01,,---,0.02,VWS V14.01,2013-02-02 23:24:00,
2013-02-02 17:29:00,42.3,38.4,30.20,South,191,0.0,1.0,86,0.01,,---,0.02,VWS V14.01,2013-02-02 23:29:00,
2013-02-02 17:34:00,42.4,38.5,30.20,South,191,0.0,0.0,86,0.01,,---,0.02,VWS V14.01,2013-02-02 23:34:00,
2013-02-02 17:39:00,42.5,38.6,30.20,South,191,0.0,0.0,86,0.01,,---,0.02,VWS V14.01,2013-02-02 23:39:00,
2013-02-02 17:44:00,42.3,38.4,30.19,South,191,0.0,0.0,86,0.01,,---,0.02,VWS V14.01,2013-02-02 23:44:00,
2013-02-02 17:49:00,42.3,38.4,30.19,South,191,0.0,0.0,86,0.01,,---,0.02,VWS V14.01,2013-02-02 23:49:00,
2013-02-02 17:54:00,42.4,38.5,30.18,South,191,0.0,0.0,86,0.01,,---,0.02,VWS V14.01,2013-02-02 23:54:00,
2013-02-02 17:59:00,42.4,38.2,30.18,South,191,0.0,0.0,85,0.01,,---,0.02,VWS V14.01,2013-02-02 23:59:00,
2013-02-02 18:04:00,41.9,37.7,30.18,South,191,0.0,1.0,85,0.00,,---,0.02,VWS V14.01,2013-02-03 00:04:00,
2013-02-02 18:09:00,41.6,37.7,30.18,South,190,0.0,1.0,86,0.00,,---,0.02,VWS V14.01,2013-02-03 00:09:00,
2013-02-02 18:14:00,41.3,37.7,30.18,South,190,0.0,1.0,87,0.00,,---,0.02,VWS V14.01,2013-02-03 00:14:00,
2013-02-02 18:19:00,41.0,37.1,30.18,South,190,0.0,1.0,86,0.00,,---,0.02,VWS V14.01,2013-02-03 00:19:00,
2013-02-02 18:24:00,40.8,37.2,30.18,South,190,0.0,1.0,87,0.00,,---,0.02,VWS V14.01,2013-02-03 00:24:00,
2013-02-02 18:29:00,40.6,37.0,30.18,South,190,0.0,2.0,87,0.00,,---,0.02,VWS V14.01,2013-02-03 00:29:00,
2013-02-02 18:34:00,40.7,37.1,30.18,ENE,65,1.0,2.0,87,0.00,,---,0.02,VWS V14.01,2013-02-03 00:34:00,
2013-02-02 18:39:00,40.7,37.1,30.18,ENE,65,0.0,2.0,87,0.00,,---,0.02,VWS V14.01,2013-02-03 00:39:00,
2013-02-02 18:44:00,40.5,36.9,30.18,ENE,65,0.0,2.0,87,0.00,,---,0.02,VWS V14.01,2013-02-03 00:44:00,
2013-02-02 18:49:00,40.3,36.8,30.19,ENE,65,0.0,2.0,87,0.00,,---,0.02,VWS V14.01,2013-02-03 00:49:00,
2013-02-02 18:54:00,40.2,36.7,30.19,ENE,65,0.0,2.0,87,0.00,,---,0.02,VWS V14.01,2013-02-03 00:54:00,
2013-02-02 18:59:00,40.1,36.5,30.19,ENE,65,0.0,2.0,87,0.00,,---,0.02,VWS V14.01,2013-02-03 00:59:00,
2013-02-02 19:04:00,40.0,36.5,30.19,ENE,65,0.0,0.0,87,0.00,,---,0.02,VWS V14.01,2013-02-03 01:04:00,
2013-02-02 19:09:00,39.8,36.2,30.19,ENE,65,0.0,0.0,87,0.00,,---,0.02,VWS V14.01,2013-02-03 01:09:00,
2013-02-02 19:14:00,39.3,35.8,30.20,ENE,65,0.0,0.0,87,0.00,,---,0.02,VWS V14.01,2013-02-03 01:14:00,
2013-02-02 19:19:00,39.1,35.6,30.19,ENE,65,0.0,0.0,87,0.00,,---,0.02,VWS V14.01,2013-02-03 01:19:00,
2013-02-02 19:24:00,38.6,35.1,30.19,ENE,65,0.0,0.0,87,0.00,,---,0.02,VWS V14.01,2013-02-03 01:24:00,
2013-02-02 19:29:00,38.9,35.7,30.19,ENE,65,0.0,0.0,88,0.00,,---,0.02,VWS V14.01,2013-02-03 01:29:00,
2013-02-02 19:34:00,39.0,35.8,30.19,ENE,65,0.0,0.0,88,0.00,,---,0.02,VWS V14.01,2013-02-03 01:34:00,
2013-02-02 19:39:00,39.0,35.8,30.19,ENE,65,0.0,0.0,88,0.00,,---,0.02,VWS V14.01,2013-02-03 01:39:00,
2013-02-02 19:44:00,38.9,35.7,30.19,ENE,65,0.0,0.0,88,0.00,,---,0.02,VWS V14.01,2013-02-03 01:44:00,
2013-02-02 19:49:00,38.8,35.6,30.20,ENE,65,0.0,0.0,88,0.00,,---,0.02,VWS V14.01,2013-02-03 01:49:00,
2013-02-02 19:54:00,39.1,35.8,30.20,ENE,74,0.0,2.0,88,0.00,,---,0.02,VWS V14.01,2013-02-03 01:54:00,
2013-02-02 19:59:00,39.1,35.8,30.20,ENE,74,0.0,2.0,88,0.00,,---,0.02,VWS V14.01,2013-02-03 01:59:00,
2013-02-02 20:04:00,38.8,35.6,30.20,NNE,26,0.0,3.0,88,0.00,,---,0.02,VWS V14.01,2013-02-03 02:04:00,
2013-02-02 20:09:00,38.5,35.3,30.20,NNE,26,0.0,3.0,88,0.00,,---,0.02,VWS V14.01,2013-02-03 02:09:00,
2013-02-02 20:14:00,38.2,35.0,30.20,NNE,26,0.0,3.0,88,0.00,,---,0.02,VWS V14.01,2013-02-03 02:14:00,
2013-02-02 20:19:00,37.5,34.3,30.20,NNE,26,0.0,3.0,88,0.00,,---,0.02,VWS V14.01,2013-02-03 02:19:00,
2013-02-02 20:24:00,37.1,33.9,30.20,NNE,26,0.0,3.0,88,0.00,,---,0.02,VWS V14.01,2013-02-03 02:24:00,
2013-02-02 20:29:00,37.0,33.8,30.20,NNE,26,0.0,3.0,88,0.00,,---,0.02,VWS V14.01,2013-02-03 02:29:00,
2013-02-02 20:34:00,36.8,33.6,30.20,NNE,26,0.0,0.0,88,0.00,,---,0.02,VWS V14.01,2013-02-03 02:34:00,
2013-02-02 20:39:00,36.6,33.4,30.20,NNE,26,0.0,0.0,88,0.00,,---,0.02,VWS V14.01,2013-02-03 02:39:00,
2013-02-02 20:44:00,36.9,33.7,30.20,NNE,26,0.0,0.0,88,0.00,,---,0.02,VWS V14.01,2013-02-03 02:44:00,
2013-02-02 20:49:00,37.6,34.7,30.20,NNE,26,0.0,1.0,89,0.00,,---,0.02,VWS V14.01,2013-02-03 02:49:00,
2013-02-02 20:54:00,38.0,35.0,30.20,NNE,26,0.0,1.0,89,0.00,,---,0.02,VWS V14.01,2013-02-03 02:54:00,
2013-02-02 20:59:00,38.6,35.6,30.21,NNE,26,1.0,1.0,89,0.00,,---,0.02,VWS V14.01,2013-02-03 02:59:00,
2013-02-02 21:04:00,39.7,36.7,30.21,NNE,26,0.0,2.0,89,0.00,,---,0.02,VWS V14.01,2013-02-03 03:04:00,
2013-02-02 21:09:00,39.9,36.9,30.21,NNE,26,0.0,2.0,89,0.00,,---,0.02,VWS V14.01,2013-02-03 03:09:00,
2013-02-02 21:14:00,39.8,36.8,30.21,NNE,26,1.0,3.0,89,0.00,,---,0.02,VWS V14.01,2013-02-03 03:14:00,
2013-02-02 21:19:00,40.0,36.7,30.22,North,11,0.0,3.0,88,0.00,,---,0.02,VWS V14.01,2013-02-03 03:19:00,
2013-02-02 21:24:00,40.1,37.1,30.22,North,11,0.0,3.0,89,0.00,,---,0.02,VWS V14.01,2013-02-03 03:24:00,
2013-02-02 21:29:00,40.2,36.9,30.21,North,11,0.0,3.0,88,0.00,,---,0.02,VWS V14.01,2013-02-03 03:29:00,
2013-02-02 21:34:00,40.2,36.9,30.22,North,11,0.0,2.0,88,0.00,,---,0.02,VWS V14.01,2013-02-03 03:34:00,
2013-02-02 21:39:00,39.6,36.3,30.22,North,11,0.0,2.0,88,0.00,,---,0.02,VWS V14.01,2013-02-03 03:39:00,
2013-02-02 21:44:00,38.8,35.6,30.22,North,11,0.0,2.0,88,0.00,,---,0.02,VWS V14.01,2013-02-03 03:44:00,
2013-02-02 21:49:00,38.0,34.5,30.22,North,11,0.0,2.0,87,0.00,,---,0.02,VWS V14.01,2013-02-03 03:49:00,
2013-02-02 21:54:00,38.5,35.3,30.22,North,11,0.0,2.0,88,0.00,,---,0.02,VWS V14.01,2013-02-03 03:54:00,
2013-02-02 21:59:00,38.2,35.0,30.22,North,11,0.0,2.0,88,0.00,,---,0.02,VWS V14.01,2013-02-03 03:59:00,
2013-02-02 22:04:00,38.4,35.2,30.23,North,11,0.0,0.0,88,0.00,,---,0.02,VWS V14.01,2013-02-03 04:04:00,
2013-02-02 22:09:00,39.4,36.4,30.23,North,11,0.0,3.0,89,0.00,,---,0.02,VWS V14.01,2013-02-03 04:09:00,
2013-02-02 22:14:00,38.7,35.5,30.23,North,11,0.0,3.0,88,0.00,,---,0.02,VWS V14.01,2013-02-03 04:14:00,
2013-02-02 22:19:00,39.3,36.3,30.23,ESE,111,0.0,3.0,89,0.00,,---,0.02,VWS V14.01,2013-02-03 04:19:00,
2013-02-02 22:24:00,39.3,36.0,30.23,ESE,111,0.0,3.0,88,0.00,,---,0.02,VWS V14.01,2013-02-03 04:24:00,
2013-02-02 22:29:00,38.5,35.3,30.23,ESE,111,0.0,3.0,88,0.00,,---,0.02,VWS V14.01,2013-02-03 04:29:00,
2013-02-02 22:34:00,38.0,34.8,30.22,ESE,111,2.0,2.0,88,0.00,,---,0.02,VWS V14.01,2013-02-03 04:34:00,
2013-02-02 22:39:00,38.5,35.3,30.22,ESE,111,0.0,2.0,88,0.00,,---,0.02,VWS V14.01,2013-02-03 04:39:00,
2013-02-02 22:44:00,38.0,34.8,30.22,ESE,111,0.0,2.0,88,0.00,,---,0.02,VWS V14.01,2013-02-03 04:44:00,
2013-02-02 22:49:00,37.0,33.8,30.22,ESE,111,0.0,2.0,88,0.00,,---,0.02,VWS V14.01,2013-02-03 04:49:00,
2013-02-02 22:53:00,37.3,34.1,30.22,ESE,111,0.0,2.0,88,0.00,,---,0.02,VWS V14.01,2013-02-03 04:53:00,
2013-02-02 22:58:00,37.6,34.7,30.22,ESE,106,0.0,3.0,89,0.00,,---,0.02,VWS V14.01,2013-02-03 04:58:00,
2013-02-02 23:00:00,37.5,34.6,30.22,ESE,106,0.0,3.0,89,0.00,,---,0.02,VWS V14.01,2013-02-03 05:00:00,
2013-02-02 23:01:00,37.6,34.4,30.22,NNE,19,0.0,3.0,88,0.00,,---,0.02,VWS V14.01,2013-02-03 05:01:00,
2013-02-02 23:06:00,38.0,35.0,30.22,NNE,22,0.0,3.0,89,0.00,,---,0.02,VWS V14.01,2013-02-03 05:06:00,
2013-02-02 23:11:00,38.3,35.3,30.22,NNE,22,0.0,3.0,89,0.00,,---,0.02,VWS V14.01,2013-02-03 05:11:00,
2013-02-02 23:16:00,38.2,35.0,30.22,NNE,23,1.0,3.0,88,0.00,,---,0.02,VWS V14.01,2013-02-03 05:16:00,
2013-02-02 23:21:00,38.1,34.9,30.22,NNE,23,0.0,3.0,88,0.00,,---,0.02,VWS V14.01,2013-02-03 05:21:00,
2013-02-02 23:26:00,37.8,34.6,30.22,NNE,24,0.0,3.0,88,0.00,,---,0.02,VWS V14.01,2013-02-03 05:26:00,
2013-02-02 23:31:00,37.9,34.7,30.22,NNE,24,0.0,0.0,88,0.00,,---,0.02,VWS V14.01,2013-02-03 05:31:00,
2013-02-02 23:36:00,37.8,34.6,30.23,NNE,24,0.0,0.0,88,0.00,,---,0.02,VWS V14.01,2013-02-03 05:36:00,
2013-02-02 23:41:00,37.7,34.5,30.22,NNE,24,0.0,1.0,88,0.00,,---,0.02,VWS V14.01,2013-02-03 05:41:00,
2013-02-02 23:46:00,37.7,34.5,30.23,NE,50,0.0,4.0,88,0.00,,---,0.02,VWS V14.01,2013-02-03 05:46:00,
2013-02-02 23:51:00,37.9,34.7,30.23,NE,35,0.0,4.0,88,0.00,,---,0.02,VWS V14.01,2013-02-03 05:51:00,
2013-02-02 23:56:00,37.7,34.5,30.22,NE,35,0.0,4.0,88,0.00,,---,0.02,VWS V14.01,2013-02-03 05:56:00,